Year,Month,Day,Hour,Minute,Value (Times are PST for temperature in C)
2018,11,14,00,00,7.80
2018,11,14,00,01,7.80
2018,11,14,00,02,7.80
2018,11,14,00,03,7.80
2018,11,14,00,04,7.80
2018,11,14,00,05,7.80
2018,11,14,00,06,7.80
2018,11,14,00,07,7.80
2018,11,14,00,08,7.80
2018,11,14,00,09,7.80
2018,11,14,00,10,7.70
2018,11,14,00,11,7.70
2018,11,14,00,12,7.70
2018,11,14,00,13,7.70
2018,11,14,00,14,7.70
2018,11,14,00,15,7.70
2018,11,14,00,16,7.70
2018,11,14,00,17,7.70
2018,11,14,00,18,7.70
2018,11,14,00,19,7.70
2018,11,14,00,20,7.70
2018,11,14,00,21,7.70
2018,11,14,00,22,7.70
2018,11,14,00,23,7.70
2018,11,14,00,24,7.70
2018,11,14,00,25,7.70
2018,11,14,00,26,7.70
2018,11,14,00,27,7.70
2018,11,14,00,28,7.70
2018,11,14,00,29,7.70
2018,11,14,00,30,7.70
2018,11,14,00,31,7.70
2018,11,14,00,32,7.70
2018,11,14,00,33,7.70
2018,11,14,00,34,7.70
2018,11,14,00,35,7.70
2018,11,14,00,36,7.70
2018,11,14,00,37,7.70
2018,11,14,00,38,7.70
2018,11,14,00,39,7.70
2018,11,14,00,40,7.70
2018,11,14,00,41,7.70
2018,11,14,00,42,7.70
2018,11,14,00,43,7.70
2018,11,14,00,44,7.70
2018,11,14,00,45,7.70
2018,11,14,00,46,7.70
2018,11,14,00,47,7.70
2018,11,14,00,48,7.70
2018,11,14,00,49,7.70
2018,11,14,00,50,7.70
2018,11,14,00,51,7.70
2018,11,14,00,52,7.70
2018,11,14,00,53,7.70
2018,11,14,00,54,7.70
2018,11,14,00,55,7.70
2018,11,14,00,56,7.70
2018,11,14,00,57,7.60
2018,11,14,00,58,7.70
2018,11,14,00,59,7.70
2018,11,14,01,00,7.70
2018,11,14,01,01,7.70
2018,11,14,01,02,7.70
2018,11,14,01,03,7.70
2018,11,14,01,04,7.70
2018,11,14,01,05,7.70
2018,11,14,01,06,7.70
2018,11,14,01,07,7.60
2018,11,14,01,08,7.60
2018,11,14,01,09,7.60
2018,11,14,01,10,7.60
2018,11,14,01,11,7.60
2018,11,14,01,12,7.60
2018,11,14,01,13,7.60
2018,11,14,01,14,7.60
2018,11,14,01,15,7.60
2018,11,14,01,16,7.60
2018,11,14,01,17,7.60
2018,11,14,01,18,7.60
2018,11,14,01,19,7.60
2018,11,14,01,20,7.60
2018,11,14,01,21,7.60
2018,11,14,01,22,7.60
2018,11,14,01,23,7.60
2018,11,14,01,24,7.60
2018,11,14,01,25,7.60
2018,11,14,01,26,7.60
2018,11,14,01,27,7.60
2018,11,14,01,28,7.60
2018,11,14,01,29,7.70
2018,11,14,01,30,7.70
2018,11,14,01,31,7.70
2018,11,14,01,32,7.70
2018,11,14,01,33,7.70
2018,11,14,01,34,7.70
2018,11,14,01,35,7.70
2018,11,14,01,36,7.70
2018,11,14,01,37,7.70
2018,11,14,01,38,7.70
2018,11,14,01,39,7.70
2018,11,14,01,40,7.70
2018,11,14,01,41,7.70
2018,11,14,01,42,7.70
2018,11,14,01,43,7.70
2018,11,14,01,44,7.70
2018,11,14,01,45,7.70
2018,11,14,01,46,7.70
2018,11,14,01,47,7.70
2018,11,14,01,48,7.70
2018,11,14,01,49,7.70
2018,11,14,01,50,7.70
2018,11,14,01,51,7.70
2018,11,14,01,52,7.70
2018,11,14,01,53,7.70
2018,11,14,01,54,7.70
2018,11,14,01,55,7.70
2018,11,14,01,56,7.70
2018,11,14,01,57,7.70
2018,11,14,01,58,7.70
2018,11,14,01,59,7.70
2018,11,14,02,00,7.70
2018,11,14,02,01,7.70
2018,11,14,02,02,7.70
2018,11,14,02,03,7.70
2018,11,14,02,04,7.70
2018,11,14,02,05,7.70
2018,11,14,02,06,7.80
2018,11,14,02,07,7.80
2018,11,14,02,08,7.80
2018,11,14,02,09,7.80
2018,11,14,02,10,7.80
2018,11,14,02,11,7.80
2018,11,14,02,12,7.80
2018,11,14,02,13,7.80
2018,11,14,02,14,7.80
2018,11,14,02,15,7.80
2018,11,14,02,16,7.80
2018,11,14,02,17,7.80
2018,11,14,02,18,7.80
2018,11,14,02,19,7.80
2018,11,14,02,20,7.80
2018,11,14,02,21,7.80
2018,11,14,02,22,7.80
2018,11,14,02,23,7.80
2018,11,14,02,24,7.80
2018,11,14,02,25,7.80
2018,11,14,02,26,7.80
2018,11,14,02,27,7.80
2018,11,14,02,28,7.80
2018,11,14,02,29,7.80
2018,11,14,02,30,7.80
2018,11,14,02,31,7.80
2018,11,14,02,32,7.80
2018,11,14,02,33,7.80
2018,11,14,02,34,7.80
2018,11,14,02,35,7.80
2018,11,14,02,36,7.80
2018,11,14,02,37,7.80
2018,11,14,02,38,7.80
2018,11,14,02,39,7.80
2018,11,14,02,40,7.80
2018,11,14,02,41,7.80
2018,11,14,02,42,7.80
2018,11,14,02,43,7.80
2018,11,14,02,44,7.80
2018,11,14,02,45,7.80
2018,11,14,02,46,7.80
2018,11,14,02,47,7.80
2018,11,14,02,48,7.80
2018,11,14,02,49,7.80
2018,11,14,02,50,7.80
2018,11,14,02,51,7.80
2018,11,14,02,52,7.80
2018,11,14,02,53,7.80
2018,11,14,02,54,7.90
2018,11,14,02,55,7.90
2018,11,14,02,56,7.90
2018,11,14,02,57,7.90
2018,11,14,02,58,7.90
2018,11,14,02,59,7.90
2018,11,14,03,00,7.90
2018,11,14,03,01,7.90
2018,11,14,03,02,7.90
2018,11,14,03,03,7.90
2018,11,14,03,04,7.90
2018,11,14,03,05,7.90
2018,11,14,03,06,7.90
2018,11,14,03,07,8.00
2018,11,14,03,08,8.00
2018,11,14,03,09,8.00
2018,11,14,03,10,8.00
2018,11,14,03,11,8.00
2018,11,14,03,12,8.00
2018,11,14,03,13,8.10
2018,11,14,03,14,8.10
2018,11,14,03,15,8.10
2018,11,14,03,16,8.10
2018,11,14,03,17,8.20
2018,11,14,03,18,8.20
2018,11,14,03,19,8.20
2018,11,14,03,20,8.20
2018,11,14,03,21,8.20
2018,11,14,03,22,8.20
2018,11,14,03,23,8.20
2018,11,14,03,24,8.20
2018,11,14,03,25,8.20
2018,11,14,03,26,8.20
2018,11,14,03,27,8.20
2018,11,14,03,28,8.20
2018,11,14,03,29,8.20
2018,11,14,03,30,8.20
2018,11,14,03,31,8.20
2018,11,14,03,32,8.20
2018,11,14,03,33,8.20
2018,11,14,03,34,8.20
2018,11,14,03,35,8.30
2018,11,14,03,36,8.30
2018,11,14,03,37,8.30
2018,11,14,03,38,8.30
2018,11,14,03,39,8.30
2018,11,14,03,40,8.30
2018,11,14,03,41,8.30
2018,11,14,03,42,8.30
2018,11,14,03,43,8.30
2018,11,14,03,44,8.30
2018,11,14,03,45,8.30
2018,11,14,03,46,8.30
2018,11,14,03,47,8.30
2018,11,14,03,48,8.30
2018,11,14,03,49,8.30
2018,11,14,03,50,8.30
2018,11,14,03,51,8.30
2018,11,14,03,52,8.30
2018,11,14,03,53,8.30
2018,11,14,03,54,8.30
2018,11,14,03,55,8.30
2018,11,14,03,56,8.30
2018,11,14,03,57,8.30
2018,11,14,03,58,8.30
2018,11,14,03,59,8.30
2018,11,14,04,00,8.30
2018,11,14,04,01,8.30
2018,11,14,04,02,8.30
2018,11,14,04,03,8.30
2018,11,14,04,04,8.30
2018,11,14,04,05,8.30
2018,11,14,04,06,8.30
2018,11,14,04,07,8.30
2018,11,14,04,08,8.30
2018,11,14,04,09,8.20
2018,11,14,04,10,8.20
2018,11,14,04,11,8.20
2018,11,14,04,12,8.20
2018,11,14,04,13,8.20
2018,11,14,04,14,8.20
2018,11,14,04,15,8.20
2018,11,14,04,16,8.20
2018,11,14,04,17,8.20
2018,11,14,04,18,8.20
2018,11,14,04,19,8.20
2018,11,14,04,20,8.20
2018,11,14,04,21,8.20
2018,11,14,04,22,8.20
2018,11,14,04,23,8.20
2018,11,14,04,24,8.20
2018,11,14,04,25,8.20
2018,11,14,04,26,8.20
2018,11,14,04,27,8.20
2018,11,14,04,28,8.20
2018,11,14,04,29,8.20
2018,11,14,04,30,8.10
2018,11,14,04,31,8.10
2018,11,14,04,32,8.10
2018,11,14,04,33,8.10
2018,11,14,04,34,8.10
2018,11,14,04,35,8.10
2018,11,14,04,36,8.10
2018,11,14,04,37,8.10
2018,11,14,04,38,8.10
2018,11,14,04,39,8.10
2018,11,14,04,40,8.10
2018,11,14,04,41,8.10
2018,11,14,04,42,8.10
2018,11,14,04,43,8.10
2018,11,14,04,44,8.10
2018,11,14,04,45,8.10
2018,11,14,04,46,8.00
2018,11,14,04,47,8.00
2018,11,14,04,48,8.00
2018,11,14,04,49,8.00
2018,11,14,04,50,8.00
2018,11,14,04,51,8.00
2018,11,14,04,52,8.00
2018,11,14,04,53,8.00
2018,11,14,04,54,8.00
2018,11,14,04,55,8.00
2018,11,14,04,56,8.00
2018,11,14,04,57,8.00
2018,11,14,04,58,8.00
2018,11,14,04,59,8.00
2018,11,14,05,00,8.00
2018,11,14,05,01,8.00
2018,11,14,05,02,8.00
2018,11,14,05,03,8.00
2018,11,14,05,04,8.00
2018,11,14,05,05,8.00
2018,11,14,05,06,8.00
2018,11,14,05,07,8.00
2018,11,14,05,08,8.00
2018,11,14,05,09,8.00
2018,11,14,05,10,8.00
2018,11,14,05,11,8.00
2018,11,14,05,12,8.00
2018,11,14,05,13,8.00
2018,11,14,05,14,8.00
2018,11,14,05,15,7.90
2018,11,14,05,16,7.90
2018,11,14,05,17,7.90
2018,11,14,05,18,7.90
2018,11,14,05,19,7.90
2018,11,14,05,20,7.90
2018,11,14,05,21,7.90
2018,11,14,05,22,7.90
2018,11,14,05,23,7.90
2018,11,14,05,24,7.90
2018,11,14,05,25,7.90
2018,11,14,05,26,7.90
2018,11,14,05,27,7.90
2018,11,14,05,28,7.90
2018,11,14,05,29,7.90
2018,11,14,05,30,7.90
2018,11,14,05,31,7.90
2018,11,14,05,32,7.90
2018,11,14,05,33,7.90
2018,11,14,05,34,7.90
2018,11,14,05,35,7.90
2018,11,14,05,36,7.90
2018,11,14,05,37,7.90
2018,11,14,05,38,7.90
2018,11,14,05,39,7.90
2018,11,14,05,40,7.90
2018,11,14,05,41,7.90
2018,11,14,05,42,7.90
2018,11,14,05,43,7.90
2018,11,14,05,44,7.90
2018,11,14,05,45,7.90
2018,11,14,05,46,7.90
2018,11,14,05,47,7.90
2018,11,14,05,48,7.90
2018,11,14,05,49,7.90
2018,11,14,05,50,7.90
2018,11,14,05,51,7.90
2018,11,14,05,52,7.90
2018,11,14,05,53,7.90
2018,11,14,05,54,7.90
2018,11,14,05,55,7.90
2018,11,14,05,56,7.90
2018,11,14,05,57,7.90
2018,11,14,05,58,7.90
2018,11,14,05,59,7.90
2018,11,14,06,00,8.00
2018,11,14,06,01,8.00
2018,11,14,06,02,8.00
2018,11,14,06,03,8.00
2018,11,14,06,04,8.00
2018,11,14,06,05,8.00
2018,11,14,06,06,8.00
2018,11,14,06,07,8.00
2018,11,14,06,08,8.00
2018,11,14,06,09,8.00
2018,11,14,06,10,8.00
2018,11,14,06,11,8.00
2018,11,14,06,12,8.00
2018,11,14,06,13,8.00
2018,11,14,06,14,8.00
2018,11,14,06,15,8.00
2018,11,14,06,16,8.00
2018,11,14,06,17,8.00
2018,11,14,06,18,8.00
2018,11,14,06,19,8.10
2018,11,14,06,20,8.10
2018,11,14,06,21,8.10
2018,11,14,06,22,8.10
2018,11,14,06,23,8.10
2018,11,14,06,24,8.10
2018,11,14,06,25,8.10
2018,11,14,06,26,8.10
2018,11,14,06,27,8.10
2018,11,14,06,28,8.10
2018,11,14,06,29,8.10
2018,11,14,06,30,8.10
2018,11,14,06,31,8.10
2018,11,14,06,32,8.20
2018,11,14,06,33,8.20
2018,11,14,06,34,8.20
2018,11,14,06,35,8.20
2018,11,14,06,36,8.20
2018,11,14,06,37,8.20
2018,11,14,06,38,8.20
2018,11,14,06,39,8.20
2018,11,14,06,40,8.20
2018,11,14,06,41,8.20
2018,11,14,06,42,8.20
2018,11,14,06,43,8.20
2018,11,14,06,44,8.20
2018,11,14,06,45,8.20
2018,11,14,06,46,8.20
2018,11,14,06,47,8.20
2018,11,14,06,48,8.20
2018,11,14,06,49,8.20
2018,11,14,06,50,8.20
2018,11,14,06,51,8.20
2018,11,14,06,52,8.20
2018,11,14,06,53,8.20
2018,11,14,06,54,8.20
2018,11,14,06,55,8.30
2018,11,14,06,56,8.30
2018,11,14,06,57,8.30
2018,11,14,06,58,8.30
2018,11,14,06,59,8.30
2018,11,14,07,00,8.30
2018,11,14,07,01,8.30
2018,11,14,07,02,8.30
2018,11,14,07,03,8.30
2018,11,14,07,04,8.30
2018,11,14,07,05,8.30
2018,11,14,07,06,8.30
2018,11,14,07,07,8.30
2018,11,14,07,08,8.30
2018,11,14,07,09,8.30
2018,11,14,07,10,8.30
2018,11,14,07,11,8.30
2018,11,14,07,12,8.30
2018,11,14,07,13,8.30
2018,11,14,07,14,8.30
2018,11,14,07,15,8.30
2018,11,14,07,16,8.30
2018,11,14,07,17,8.30
2018,11,14,07,18,8.40
2018,11,14,07,19,8.40
2018,11,14,07,20,8.40
2018,11,14,07,21,8.40
2018,11,14,07,22,8.40
2018,11,14,07,23,8.40
2018,11,14,07,24,8.40
2018,11,14,07,25,8.40
2018,11,14,07,26,8.40
2018,11,14,07,27,8.40
2018,11,14,07,28,8.40
2018,11,14,07,29,8.40
2018,11,14,07,30,8.40
2018,11,14,07,31,8.30
2018,11,14,07,32,8.30
2018,11,14,07,33,8.30
2018,11,14,07,34,8.30
2018,11,14,07,35,8.30
2018,11,14,07,36,8.30
2018,11,14,07,37,8.30
2018,11,14,07,38,8.30
2018,11,14,07,39,8.30
2018,11,14,07,40,8.20
2018,11,14,07,41,8.20
2018,11,14,07,42,8.20
2018,11,14,07,43,8.20
2018,11,14,07,44,8.20
2018,11,14,07,45,8.20
2018,11,14,07,46,8.20
2018,11,14,07,47,8.20
2018,11,14,07,48,8.20
2018,11,14,07,49,8.20
2018,11,14,07,50,8.20
2018,11,14,07,51,8.20
2018,11,14,07,52,8.20
2018,11,14,07,53,8.30
2018,11,14,07,54,8.30
2018,11,14,07,55,8.30
2018,11,14,07,56,8.30
2018,11,14,07,57,8.30
2018,11,14,07,58,8.30
2018,11,14,07,59,8.30
2018,11,14,08,00,8.30
2018,11,14,08,01,8.30
2018,11,14,08,02,8.30
2018,11,14,08,03,8.30
2018,11,14,08,04,8.30
2018,11,14,08,05,8.40
2018,11,14,08,06,8.40
2018,11,14,08,07,8.40
2018,11,14,08,08,8.40
2018,11,14,08,09,8.40
2018,11,14,08,10,8.40
2018,11,14,08,11,8.40
2018,11,14,08,12,8.50
2018,11,14,08,13,8.50
2018,11,14,08,14,8.50
2018,11,14,08,15,8.50
2018,11,14,08,16,8.50
2018,11,14,08,17,8.50
2018,11,14,08,18,8.50
2018,11,14,08,19,8.50
2018,11,14,08,20,8.50
2018,11,14,08,21,8.60
2018,11,14,08,22,8.60
2018,11,14,08,23,8.60
2018,11,14,08,24,8.60
2018,11,14,08,25,8.60
2018,11,14,08,26,8.70
2018,11,14,08,27,8.70
2018,11,14,08,28,8.70
2018,11,14,08,29,8.70
2018,11,14,08,30,8.70
2018,11,14,08,31,8.70
2018,11,14,08,32,8.70
2018,11,14,08,33,8.70
2018,11,14,08,34,8.70
2018,11,14,08,35,8.80
2018,11,14,08,36,8.80
2018,11,14,08,37,8.80
2018,11,14,08,38,8.80
2018,11,14,08,39,8.90
2018,11,14,08,40,8.90
2018,11,14,08,41,9.00
2018,11,14,08,42,9.00
2018,11,14,08,43,9.00
2018,11,14,08,44,9.10
2018,11,14,08,45,9.20
2018,11,14,08,46,9.20
2018,11,14,08,47,9.20
2018,11,14,08,48,9.30
2018,11,14,08,49,9.30
2018,11,14,08,50,9.30
2018,11,14,08,51,9.30
2018,11,14,08,52,9.30
2018,11,14,08,53,9.30
2018,11,14,08,54,9.40
2018,11,14,08,55,9.40
2018,11,14,08,56,9.40
2018,11,14,08,57,9.40
2018,11,14,08,58,9.40
2018,11,14,08,59,9.40
2018,11,14,09,00,9.40
2018,11,14,09,01,9.50
2018,11,14,09,02,9.50
2018,11,14,09,03,9.50
2018,11,14,09,04,9.50
2018,11,14,09,05,9.50
2018,11,14,09,06,9.60
2018,11,14,09,07,9.70
2018,11,14,09,08,9.70
2018,11,14,09,09,9.70
2018,11,14,09,10,9.70
2018,11,14,09,11,9.70
2018,11,14,09,12,9.70
2018,11,14,09,13,9.70
2018,11,14,09,14,9.80
2018,11,14,09,15,9.90
2018,11,14,09,16,10.00
2018,11,14,09,17,10.10
2018,11,14,09,18,10.10
2018,11,14,09,19,10.20
2018,11,14,09,20,10.40
2018,11,14,09,21,10.50
2018,11,14,09,22,10.70
2018,11,14,09,23,10.90
2018,11,14,09,24,10.90
2018,11,14,09,25,11.10
2018,11,14,09,26,11.10
2018,11,14,09,27,11.20
2018,11,14,09,28,11.20
2018,11,14,09,29,11.30
2018,11,14,09,30,11.40
2018,11,14,09,31,11.50
2018,11,14,09,32,11.60
2018,11,14,09,33,11.70
2018,11,14,09,34,11.80
2018,11,14,09,35,11.80
2018,11,14,09,36,11.90
2018,11,14,09,37,12.00
2018,11,14,09,38,12.10
2018,11,14,09,39,12.10
2018,11,14,09,40,12.20
2018,11,14,09,41,12.30
2018,11,14,09,42,12.30
2018,11,14,09,43,12.30
2018,11,14,09,44,12.30
2018,11,14,09,45,12.40
2018,11,14,09,46,12.40
2018,11,14,09,47,12.40
2018,11,14,09,48,12.50
2018,11,14,09,49,12.50
2018,11,14,09,50,12.50
2018,11,14,09,51,12.60
2018,11,14,09,52,12.60
2018,11,14,09,53,12.60
2018,11,14,09,54,12.70
2018,11,14,09,55,12.70
2018,11,14,09,56,12.70
2018,11,14,09,57,12.80
2018,11,14,09,58,12.80
2018,11,14,09,59,12.80
2018,11,14,10,00,12.80
2018,11,14,10,01,12.80
2018,11,14,10,02,12.80
2018,11,14,10,03,12.90
2018,11,14,10,04,12.90
2018,11,14,10,05,12.90
2018,11,14,10,06,12.90
2018,11,14,10,07,12.90
2018,11,14,10,08,13.00
2018,11,14,10,09,13.00
2018,11,14,10,10,13.00
2018,11,14,10,11,13.00
2018,11,14,10,12,13.00
2018,11,14,10,13,13.00
2018,11,14,10,14,13.00
2018,11,14,10,15,13.00
2018,11,14,10,16,13.00
2018,11,14,10,17,13.10
2018,11,14,10,18,13.10
2018,11,14,10,19,13.10
2018,11,14,10,20,13.10
2018,11,14,10,21,13.20
2018,11,14,10,22,13.20
2018,11,14,10,23,13.20
2018,11,14,10,24,13.20
2018,11,14,10,25,13.20
2018,11,14,10,26,13.20
2018,11,14,10,27,13.20
2018,11,14,10,28,13.20
2018,11,14,10,29,13.20
2018,11,14,10,30,13.20
2018,11,14,10,31,13.20
2018,11,14,10,32,13.20
2018,11,14,10,33,13.30
2018,11,14,10,34,13.30
2018,11,14,10,35,13.30
2018,11,14,10,36,13.40
2018,11,14,10,37,13.40
2018,11,14,10,38,13.40
2018,11,14,10,39,13.40
2018,11,14,10,40,13.40
2018,11,14,10,41,13.40
2018,11,14,10,42,13.40
2018,11,14,10,43,13.40
2018,11,14,10,44,13.40
2018,11,14,10,45,13.40
2018,11,14,10,46,13.40
2018,11,14,10,47,13.40
2018,11,14,10,48,13.40
2018,11,14,10,49,13.40
2018,11,14,10,50,13.40
2018,11,14,10,51,13.40
2018,11,14,10,52,13.40
2018,11,14,10,53,13.50
2018,11,14,10,54,13.50
2018,11,14,10,55,13.40
2018,11,14,10,56,13.40
2018,11,14,10,57,13.40
2018,11,14,10,58,13.40
2018,11,14,10,59,13.40
2018,11,14,11,00,13.40
2018,11,14,11,01,13.40
2018,11,14,11,02,13.40
2018,11,14,11,03,13.40
2018,11,14,11,04,13.40
2018,11,14,11,05,13.40
2018,11,14,11,06,13.50
2018,11,14,11,07,13.50
2018,11,14,11,08,13.50
2018,11,14,11,09,13.50
2018,11,14,11,10,13.50
2018,11,14,11,11,13.50
2018,11,14,11,12,13.50
2018,11,14,11,13,13.50
2018,11,14,11,14,13.50
2018,11,14,11,15,13.50
2018,11,14,11,16,13.60
2018,11,14,11,17,13.60
2018,11,14,11,18,13.60
2018,11,14,11,19,13.60
2018,11,14,11,20,13.60
2018,11,14,11,21,13.60
2018,11,14,11,22,13.60
2018,11,14,11,23,13.70
2018,11,14,11,24,13.70
2018,11,14,11,25,13.70
2018,11,14,11,26,13.70
2018,11,14,11,27,13.70
2018,11,14,11,28,13.70
2018,11,14,11,29,13.70
2018,11,14,11,30,13.70
2018,11,14,11,31,13.70
2018,11,14,11,32,13.70
2018,11,14,11,33,13.70
2018,11,14,11,34,13.70
2018,11,14,11,35,13.70
2018,11,14,11,36,13.70
2018,11,14,11,37,13.70
2018,11,14,11,38,13.80
2018,11,14,11,39,13.80
2018,11,14,11,40,13.90
2018,11,14,11,41,13.90
2018,11,14,11,42,14.00
2018,11,14,11,43,14.00
2018,11,14,11,44,14.10
2018,11,14,11,45,14.10
2018,11,14,11,46,14.10
2018,11,14,11,47,14.10
2018,11,14,11,48,14.10
2018,11,14,11,49,14.20
2018,11,14,11,50,14.20
2018,11,14,11,51,14.20
2018,11,14,11,52,14.30
2018,11,14,11,53,14.30
2018,11,14,11,54,14.30
2018,11,14,11,55,14.30
2018,11,14,11,56,14.20
2018,11,14,11,57,14.20
2018,11,14,11,58,14.20
2018,11,14,11,59,14.30
2018,11,14,12,00,14.30
2018,11,14,12,01,14.30
2018,11,14,12,02,14.30
2018,11,14,12,03,14.30
2018,11,14,12,04,14.30
2018,11,14,12,05,14.30
2018,11,14,12,06,14.40
2018,11,14,12,07,14.40
2018,11,14,12,08,14.40
2018,11,14,12,09,14.50
2018,11,14,12,10,14.50
2018,11,14,12,11,14.60
2018,11,14,12,12,14.60
2018,11,14,12,13,14.50
2018,11,14,12,14,14.50
2018,11,14,12,15,14.60
2018,11,14,12,16,14.60
2018,11,14,12,17,14.60
2018,11,14,12,18,14.60
2018,11,14,12,19,14.60
2018,11,14,12,20,14.60
2018,11,14,12,21,14.60
2018,11,14,12,22,14.60
2018,11,14,12,23,14.60
2018,11,14,12,24,14.60
2018,11,14,12,25,14.60
2018,11,14,12,26,14.60
2018,11,14,12,27,14.70
2018,11,14,12,28,14.70
2018,11,14,12,29,14.80
2018,11,14,12,30,14.80
2018,11,14,12,31,14.80
2018,11,14,12,32,14.80
2018,11,14,12,33,14.80
2018,11,14,12,34,14.80
2018,11,14,12,35,14.80
2018,11,14,12,36,14.80
2018,11,14,12,37,14.80
2018,11,14,12,38,14.70
2018,11,14,12,39,14.70
2018,11,14,12,40,14.70
2018,11,14,12,41,14.70
2018,11,14,12,42,14.70
2018,11,14,12,43,14.70
2018,11,14,12,44,14.70
2018,11,14,12,45,14.70
2018,11,14,12,46,14.70
2018,11,14,12,47,14.60
2018,11,14,12,48,14.70
2018,11,14,12,49,14.70
2018,11,14,12,50,14.80
2018,11,14,12,51,14.80
2018,11,14,12,52,14.80
2018,11,14,12,53,14.80
2018,11,14,12,54,14.80
2018,11,14,12,55,14.90
2018,11,14,12,56,14.90
2018,11,14,12,57,14.90
2018,11,14,12,58,14.90
2018,11,14,12,59,15.00
2018,11,14,13,00,15.00
2018,11,14,13,01,15.10
2018,11,14,13,02,15.10
2018,11,14,13,03,15.10
2018,11,14,13,04,15.10
2018,11,14,13,05,15.10
2018,11,14,13,06,15.10
2018,11,14,13,07,15.10
2018,11,14,13,08,15.10
2018,11,14,13,09,15.10
2018,11,14,13,10,15.00
2018,11,14,13,11,15.00
2018,11,14,13,12,15.10
2018,11,14,13,13,15.00
2018,11,14,13,14,15.00
2018,11,14,13,15,15.00
2018,11,14,13,16,15.00
2018,11,14,13,17,15.00
2018,11,14,13,18,15.00
2018,11,14,13,19,15.10
2018,11,14,13,20,15.10
2018,11,14,13,21,15.00
2018,11,14,13,22,15.10
2018,11,14,13,23,15.10
2018,11,14,13,24,15.10
2018,11,14,13,25,15.10
2018,11,14,13,26,15.00
2018,11,14,13,27,14.90
2018,11,14,13,28,14.90
2018,11,14,13,29,14.90
2018,11,14,13,30,14.90
2018,11,14,13,31,14.90
2018,11,14,13,32,14.90
2018,11,14,13,33,14.90
2018,11,14,13,34,14.90
2018,11,14,13,35,14.90
2018,11,14,13,36,14.90
2018,11,14,13,37,15.00
2018,11,14,13,38,15.00
2018,11,14,13,39,14.90
2018,11,14,13,40,14.90
2018,11,14,13,41,14.90
2018,11,14,13,42,14.90
2018,11,14,13,43,14.90
2018,11,14,13,44,14.90
2018,11,14,13,45,14.90
2018,11,14,13,46,14.90
2018,11,14,13,47,14.80
2018,11,14,13,48,14.80
2018,11,14,13,49,14.80
2018,11,14,13,50,14.80
2018,11,14,13,51,14.70
2018,11,14,13,52,14.70
2018,11,14,13,53,14.70
2018,11,14,13,54,14.70
2018,11,14,13,55,14.70
2018,11,14,13,56,14.70
2018,11,14,13,57,14.70
2018,11,14,13,58,14.80
2018,11,14,13,59,14.80
2018,11,14,14,00,14.80
2018,11,14,14,01,14.80
2018,11,14,14,02,14.80
2018,11,14,14,03,14.80
2018,11,14,14,04,14.80
2018,11,14,14,05,14.80
2018,11,14,14,06,14.80
2018,11,14,14,07,14.80
2018,11,14,14,08,14.70
2018,11,14,14,09,14.80
2018,11,14,14,10,14.80
2018,11,14,14,11,14.80
2018,11,14,14,12,14.80
2018,11,14,14,13,14.80
2018,11,14,14,14,14.70
2018,11,14,14,15,14.70
2018,11,14,14,16,14.60
2018,11,14,14,17,14.60
2018,11,14,14,18,14.50
2018,11,14,14,19,14.50
2018,11,14,14,20,14.40
2018,11,14,14,21,14.40
2018,11,14,14,22,14.40
2018,11,14,14,23,14.30
2018,11,14,14,24,14.30
2018,11,14,14,25,14.30
2018,11,14,14,26,14.30
2018,11,14,14,27,14.30
2018,11,14,14,28,14.30
2018,11,14,14,29,14.30
2018,11,14,14,30,14.30
2018,11,14,14,31,14.30
2018,11,14,14,32,14.30
2018,11,14,14,33,14.20
2018,11,14,14,34,14.20
2018,11,14,14,35,14.20
2018,11,14,14,36,14.20
2018,11,14,14,37,14.30
2018,11,14,14,38,14.20
2018,11,14,14,39,14.20
2018,11,14,14,40,14.20
2018,11,14,14,41,14.20
2018,11,14,14,42,14.20
2018,11,14,14,43,14.20
2018,11,14,14,44,14.20
2018,11,14,14,45,14.20
2018,11,14,14,46,14.20
2018,11,14,14,47,14.20
2018,11,14,14,48,14.20
2018,11,14,14,49,14.20
2018,11,14,14,50,14.10
2018,11,14,14,51,14.20
2018,11,14,14,52,14.20
2018,11,14,14,53,14.20
2018,11,14,14,54,14.20
2018,11,14,14,55,14.20
2018,11,14,14,56,14.20
2018,11,14,14,57,14.20
2018,11,14,14,58,14.20
2018,11,14,14,59,14.10
2018,11,14,15,00,14.10
2018,11,14,15,01,14.10
2018,11,14,15,02,14.10
2018,11,14,15,03,14.10
2018,11,14,15,04,14.00
2018,11,14,15,05,14.00
2018,11,14,15,06,14.00
2018,11,14,15,07,13.90
2018,11,14,15,08,13.90
2018,11,14,15,09,13.90
2018,11,14,15,10,13.80
2018,11,14,15,11,13.80
2018,11,14,15,12,13.70
2018,11,14,15,13,13.70
2018,11,14,15,14,13.70
2018,11,14,15,15,13.60
2018,11,14,15,16,13.60
2018,11,14,15,17,13.60
2018,11,14,15,18,13.50
2018,11,14,15,19,13.50
2018,11,14,15,20,13.50
2018,11,14,15,21,13.50
2018,11,14,15,22,13.40
2018,11,14,15,23,13.40
2018,11,14,15,24,13.40
2018,11,14,15,25,13.40
2018,11,14,15,26,13.40
2018,11,14,15,27,13.40
2018,11,14,15,28,13.40
2018,11,14,15,29,13.40
2018,11,14,15,30,13.40
2018,11,14,15,31,13.40
2018,11,14,15,32,13.40
2018,11,14,15,33,13.40
2018,11,14,15,34,13.40
2018,11,14,15,35,13.40
2018,11,14,15,36,13.30
2018,11,14,15,37,13.30
2018,11,14,15,38,13.30
2018,11,14,15,39,13.30
2018,11,14,15,40,13.30
2018,11,14,15,41,13.30
2018,11,14,15,42,13.30
2018,11,14,15,43,13.30
2018,11,14,15,44,13.30
2018,11,14,15,45,13.20
2018,11,14,15,46,13.20
2018,11,14,15,47,13.20
2018,11,14,15,48,13.20
2018,11,14,15,49,13.10
2018,11,14,15,50,13.10
2018,11,14,15,51,13.00
2018,11,14,15,52,13.00
2018,11,14,15,53,12.90
2018,11,14,15,54,12.90
2018,11,14,15,55,12.80
2018,11,14,15,56,12.80
2018,11,14,15,57,12.80
2018,11,14,15,58,12.80
2018,11,14,15,59,12.70
2018,11,14,16,00,12.70
2018,11,14,16,01,12.70
2018,11,14,16,02,12.60
2018,11,14,16,03,12.60
2018,11,14,16,04,12.60
2018,11,14,16,05,12.60
2018,11,14,16,06,12.50
2018,11,14,16,07,12.50
2018,11,14,16,08,12.50
2018,11,14,16,09,12.50
2018,11,14,16,10,12.50
2018,11,14,16,11,12.50
2018,11,14,16,12,12.40
2018,11,14,16,13,12.40
2018,11,14,16,14,12.40
2018,11,14,16,15,12.40
2018,11,14,16,16,12.30
2018,11,14,16,17,12.30
2018,11,14,16,18,12.30
2018,11,14,16,19,12.30
2018,11,14,16,20,12.30
2018,11,14,16,21,12.30
2018,11,14,16,22,12.30
2018,11,14,16,23,12.30
2018,11,14,16,24,12.30
2018,11,14,16,25,12.30
2018,11,14,16,26,12.30
2018,11,14,16,27,12.30
2018,11,14,16,28,12.30
2018,11,14,16,29,12.20
2018,11,14,16,30,12.20
2018,11,14,16,31,12.20
2018,11,14,16,32,12.20
2018,11,14,16,33,12.20
2018,11,14,16,34,12.20
2018,11,14,16,35,12.20
2018,11,14,16,36,12.20
2018,11,14,16,37,12.10
2018,11,14,16,38,12.10
2018,11,14,16,39,12.10
2018,11,14,16,40,12.10
2018,11,14,16,41,12.10
2018,11,14,16,42,12.00
2018,11,14,16,43,12.00
2018,11,14,16,44,12.00
2018,11,14,16,45,12.00
2018,11,14,16,46,12.00
2018,11,14,16,47,11.90
2018,11,14,16,48,11.90
2018,11,14,16,49,11.90
2018,11,14,16,50,11.90
2018,11,14,16,51,11.90
2018,11,14,16,52,11.90
2018,11,14,16,53,11.90
2018,11,14,16,54,11.90
2018,11,14,16,55,11.90
2018,11,14,16,56,11.90
2018,11,14,16,57,11.80
2018,11,14,16,58,11.80
2018,11,14,16,59,11.80
2018,11,14,17,00,11.80
2018,11,14,17,01,11.80
2018,11,14,17,02,11.80
2018,11,14,17,03,11.80
2018,11,14,17,04,11.80
2018,11,14,17,05,11.80
2018,11,14,17,06,11.80
2018,11,14,17,07,11.80
2018,11,14,17,08,11.80
2018,11,14,17,09,11.80
2018,11,14,17,10,11.80
2018,11,14,17,11,11.70
2018,11,14,17,12,11.70
2018,11,14,17,13,11.70
2018,11,14,17,14,11.70
2018,11,14,17,15,11.70
2018,11,14,17,16,11.60
2018,11,14,17,17,11.60
2018,11,14,17,18,11.60
2018,11,14,17,19,11.60
2018,11,14,17,20,11.60
2018,11,14,17,21,11.60
2018,11,14,17,22,11.60
2018,11,14,17,23,11.60
2018,11,14,17,24,11.50
2018,11,14,17,25,11.40
2018,11,14,17,26,11.40
2018,11,14,17,27,11.40
2018,11,14,17,28,11.40
2018,11,14,17,29,11.40
2018,11,14,17,30,11.40
2018,11,14,17,31,11.40
2018,11,14,17,32,11.40
2018,11,14,17,33,11.40
2018,11,14,17,34,11.40
2018,11,14,17,35,11.30
2018,11,14,17,36,11.30
2018,11,14,17,37,11.30
2018,11,14,17,38,11.30
2018,11,14,17,39,11.30
2018,11,14,17,40,11.20
2018,11,14,17,41,11.20
2018,11,14,17,42,11.20
2018,11,14,17,43,11.20